Content
SEND FEEDBACK

Daily
Averages
Monthly
Summary
Canada

BRANTFORD, ONTARIO


Home > North America > Canada > Ontario
Elevation: 815 feet     Latitude: 43 08N     Longitude: 080 21W

WEATHER
 
SELECT A DAY
Number of Records: 131,872;   Date Range: 5/15/00 - 10/19/14
 
SHARE

PRINT THIS DATA

[ ← Previous Day ]
WEATHER ALMANAC - SEPTEMBER 18, 2013
[ Next Day → ]
[ °C ]   °F
Weather ElementAverageHighLow
Temperature55 °F70.2 °F (2:00 pm)37.2 °F (7:00 am)
Dewpoint45 °F50.9 °F (10:00 am)36.1 °F (7:00 am)
Humidity72.3 %96 % (6:00 am)37 % (2:00 pm)
Barometer30.17 in30.25 in (1:00 am)30.09 in (6:00 pm)
Wind Speed2.3 mph10.4 mph (3:00 pm)
Weather ElementAverage
Wind DirectionENE (78.8 °)

Weather ElementTotal
Precipitation---
Heating Degree Days11.3 (Base 65)
Growing Degree Days3.7 (Base 50)
Averaged from 27 records on September 18, 2013
WEATHER CONDITIONS BREAKOUT
WIND DIRECTION BREAKOUT
WEATHER BY HOUR - SEPTEMBER 18, 2013
[ °C ]   °F
Local TimeTemperatureDewpointHumidityBarometerVisibilityWind DirectionWind SpeedGust SpeedPrecipitationEventsConditions
1:00 AM41.9 °F39.9 °F93 %30.25 inCalm
2:00 AM41.0 °F40.0 °F92 %30.25 inCalm
2:00 AM41.4 °F39.6 °F93 %30.25 inCalm
3:00 AM41.2 °F39.6 °F94 %30.23 inCalm
4:00 AM40.5 °F39.0 °F95 %30.22 inCalm
5:00 AM39.0 °F37.8 °F95 %30.22 inCalm
6:00 AM38.3 °F37.2 °F96 %30.22 inCalm
7:00 AM37.2 °F36.1 °F96 %30.22 inCalm
8:00 AM40.0 °F39.0 °F96 %30.23 inCalm
8:00 AM40.3 °F39.2 °F96 %30.23 inCalm
9:00 AM51.4 °F47.8 °F87 %30.22 inCalm
10:00 AM60.6 °F50.9 °F70 %30.22 inSouth (180°)4.6 mph
11:00 AM64.8 °F50.4 °F60 %30.20 inSouth (170°)4.6 mph
12:00 PM67.3 °F50.0 °F54 %30.19 inSE (130°)3.5 mph
1:00 PM69.3 °F46.2 °F44 %30.16 inSE (140°)5.8 mph
2:00 PM70.0 °F50.0 °F37 %30.14 inSouth (180°)6.9 mph
2:00 PM70.2 °F49.6 °F48 %30.14 inSouth (180°)6.9 mph
3:00 PM70.2 °F47.7 °F45 %30.13 inSSE (160°)10.4 mph
4:00 PM70.2 °F46.4 °F43 %30.11 inSouth (170°)6.9 mph
5:00 PM70.2 °F44.8 °F40 %30.10 inSouth (170°)6.9 mph
6:00 PM70.2 °F47.1 °F44 %30.09 inSouth (190°)4.6 mph
7:00 PM67.8 °F48.9 °F51 %30.09 inSW (220°)2.3 mph
8:00 PM60.0 °F50.0 °F61 %30.09 inCalm
8:00 PM60.1 °F50.2 °F70 %30.09 inCalm
9:00 PM54.9 °F49.6 °F83 %30.10 inCalm
10:00 PM55.8 °F49.6 °F80 %30.09 inCalm
11:00 PM50.7 °F47.5 °F89 %30.10 inCalm
Hourly data recorded from CXDI, located miles away from Brantford, Ontario







STORIES FROM OUR PARTNERS